Time+07,TemperatureF,Dew PointF,Humidity,Sea Level PressureIn,VisibilityMPH,Wind Direction,Wind SpeedMPH,Gust SpeedMPH,PrecipitationIn,Events,Conditions,WindDirDegrees,DateUTC
12:00 AM,84.2,71.6,66,29.86,-9999.0,NW,3.5,-,N/A,,Clear,320,2012-11-16 17:00:00
12:30 AM,82.4,71.6,70,29.83,-9999.0,NW,3.5,-,N/A,,Clear,320,2012-11-16 17:30:00
1:00 AM,84.2,71.6,66,29.83,-9999.0,NW,3.5,-,N/A,,Clear,310,2012-11-16 18:00:00
1:30 AM,84.2,71.6,66,29.83,-9999.0,NNW,2.3,-,N/A,,Clear,340,2012-11-16 18:30:00
2:00 AM,82.4,69.8,66,29.83,-9999.0,North,4.6,-,N/A,,Clear,360,2012-11-16 19:00:00
2:30 AM,82.4,69.8,66,29.83,-9999.0,North,5.8,-,N/A,,Clear,10,2012-11-16 19:30:00
3:00 AM,82.4,69.8,66,29.80,-9999.0,North,2.3,-,N/A,,Clear,10,2012-11-16 20:00:00
3:30 AM,82.4,69.8,66,29.80,-9999.0,North,4.6,-,N/A,,Clear,10,2012-11-16 20:30:00
4:00 AM,84.2,69.8,62,29.83,5.0,NE,5.8,-,N/A,Rain,Light Rain,50,2012-11-16 21:00:00
4:30 AM,84.2,71.6,66,29.83,6.2,North,6.9,-,N/A,,Mostly Cloudy,360,2012-11-16 21:30:00
5:00 AM,80.6,73.4,79,29.83,6.2,NE,6.9,-,N/A,Rain,Light Rain Showers,50,2012-11-16 22:00:00
5:30 AM,80.6,73.4,79,29.83,6.2,East,6.9,-,N/A,,Mostly Cloudy,80,2012-11-16 22:30:00
6:00 AM,77.0,71.6,83,29.83,4.3,East,11.5,24.2,N/A,Rain,Rain,90,2012-11-16 23:00:00
6:30 AM,77.0,71.6,83,29.86,3.1,ENE,5.8,-,N/A,Rain,Light Rain Showers,70,2012-11-16 23:30:00
7:00 AM,80,74,79,29.83,5,Calm,Calm,,,,Mist,,2012-11-17 00:00:00
7:00 AM,77.0,73.4,89,29.86,5.0,West,5.8,-,N/A,Rain,Light Rain,260,2012-11-17 00:00:00
7:30 AM,78.8,73.4,83,29.86,5.6,North,5.8,-,N/A,,Mostly Cloudy,360,2012-11-17 00:30:00
8:00 AM,80.6,75.2,84,29.86,6.2,WNW,3.5,-,N/A,,Mostly Cloudy,300,2012-11-17 01:00:00
8:30 AM,80.6,73.4,79,29.89,6.2,NW,4.6,-,N/A,,Mostly Cloudy,320,2012-11-17 01:30:00
9:00 AM,84.2,73.4,70,29.89,6.2,NNW,4.6,-,N/A,,Mostly Cloudy,340,2012-11-17 02:00:00
9:30 AM,84.2,73.4,70,29.89,6.2,North,4.6,-,N/A,,Mostly Cloudy,360,2012-11-17 02:30:00
10:00 AM,86.0,73.4,66,29.89,6.2,ENE,8.1,-,N/A,,Mostly Cloudy,70,2012-11-17 03:00:00
10:30 AM,86.0,73.4,66,29.89,6.2,East,6.9,-,N/A,,Mostly Cloudy,80,2012-11-17 03:30:00
11:00 AM,86.0,73.4,66,29.89,6.2,East,10.4,-,N/A,,Mostly Cloudy,80,2012-11-17 04:00:00
11:30 AM,87.8,73.4,62,29.83,6.2,NE,11.5,-,N/A,,Mostly Cloudy,40,2012-11-17 04:30:00
12:30 PM,89.6,75.2,62,29.83,6.2,NE,11.5,-,N/A,,Mostly Cloudy,50,2012-11-17 05:30:00
1:00 PM,92,76,50,29.79,8,NNE,6.9,,,,Partly Cloudy,30,2012-11-17 06:00:00
1:00 PM,89.6,71.6,55,29.83,6.2,NE,11.5,-,N/A,,Mostly Cloudy,50,2012-11-17 06:00:00
1:30 PM,89.6,71.6,55,29.80,6.2,East,10.4,-,N/A,,Mostly Cloudy,100,2012-11-17 06:30:00
2:00 PM,89.6,73.4,59,29.77,6.2,East,10.4,-,N/A,,Mostly Cloudy,100,2012-11-17 07:00:00
2:30 PM,91.4,73.4,55,29.77,6.2,ENE,9.2,-,N/A,,Mostly Cloudy,70,2012-11-17 07:30:00
3:00 PM,89.6,73.4,59,29.77,6.2,NE,5.8,-,N/A,,Mostly Cloudy,50,2012-11-17 08:00:00
3:30 PM,89.6,73.4,59,29.74,6.2,East,9.2,-,N/A,,Mostly Cloudy,80,2012-11-17 08:30:00
4:00 PM,89.6,73.4,59,29.74,6.2,East,10.4,-,N/A,,Mostly Cloudy,90,2012-11-17 09:00:00
4:30 PM,89.6,73.4,59,29.77,6.2,East,10.4,-,N/A,,Mostly Cloudy,90,2012-11-17 09:30:00
5:00 PM,89.6,73.4,59,29.77,6.2,ENE,11.5,-,N/A,,Mostly Cloudy,60,2012-11-17 10:00:00
5:30 PM,84.2,73.4,70,29.77,6.2,NE,17.3,-,N/A,,Mostly Cloudy,40,2012-11-17 10:30:00
6:00 PM,82.4,73.4,74,29.77,6.2,NNE,11.5,-,N/A,,Mostly Cloudy,30,2012-11-17 11:00:00
6:30 PM,82.4,73.4,74,29.80,6.2,NE,6.9,-,N/A,,Mostly Cloudy,50,2012-11-17 11:30:00
7:00 PM,85,75,65,29.80,7,NE,3.5,,,,Scattered Clouds,50,2012-11-17 12:00:00
7:00 PM,82.4,73.4,74,29.80,6.2,ENE,6.9,-,N/A,,Mostly Cloudy,60,2012-11-17 12:00:00
7:30 PM,84.2,73.4,70,29.83,6.2,ENE,10.4,-,N/A,,Mostly Cloudy,60,2012-11-17 12:30:00
8:00 PM,84.2,73.4,70,29.83,6.2,NE,11.5,-,N/A,,Mostly Cloudy,50,2012-11-17 13:00:00
8:30 PM,82.4,73.4,74,29.86,6.2,ENE,8.1,-,N/A,,Mostly Cloudy,60,2012-11-17 13:30:00
9:00 PM,82.4,73.4,74,29.83,6.2,ENE,9.2,-,N/A,,Mostly Cloudy,70,2012-11-17 14:00:00
9:30 PM,82.4,73.4,74,29.86,6.2,ENE,8.1,-,N/A,,Mostly Cloudy,60,2012-11-17 14:30:00
10:00 PM,82.4,73.4,74,29.86,6.2,East,6.9,-,N/A,,Mostly Cloudy,90,2012-11-17 15:00:00
10:30 PM,80.6,73.4,79,29.86,6.2,ENE,6.9,-,N/A,,Mostly Cloudy,70,2012-11-17 15:30:00
11:00 PM,80.6,73.4,79,29.86,6.2,East,6.9,-,N/A,,Mostly Cloudy,80,2012-11-17 16:00:00
11:30 PM,80.6,73.4,79,29.86,6.2,East,6.9,-,N/A,,Mostly Cloudy,80,2012-11-17 16:30:00